Starlink 30772

operational
NORAD ID: 58135 Int'l Des: 2023-162 Owner: SPXS Country: US Constellation: starlink
LEOCIRCULAR

About Starlink 30772

Description loading...

Live Position

Loading 3D Globe...

Upcoming Passes

Altitude History

Altitude vs Time

uPlot chart will show altitude changes over time

Two-Line Element Set

1 58135U 23162T 25305.51925041 -.00002682 00000-0 -18355-3 0 9993
2 58135 43.0037 110.0453 0001586 275.2741 84.7920 15.02528875113012
Epoch: Nov 1, 2025 • Age: 22 hours

Current Status

Altitude 562.7 km
Velocity 7.58 km/s
Sub-Earth Point -19.60°S, 119.29°W
Launch Date Oct 22, 2023
Age 2 years
Type internet

Technical Details

Classification Payload
Mass 730.00 kg
Dry Mass 700.00 kg
Total Mass 730.00 kg
Length 0.30 m
Diameter 4.10 m
Span 29.00 m
Shape Box + pan
Manufacturer SPXS
Bus Type Starlink V2M
Phase Status In Orbit
Owner/State SPXS/US

Large Constellations

Loading constellations...